Location: Unspecified
(0.0000°N, 0.0000°E)
Time: 03:03:56
(UTC+00:00)

ESSA 4 - Pass Details

Date: 06 November 2024
Orbit: 1326 x 1439 km, 102.1° (Epoch: 03 December)

Event Time Altitude Azimuth Distance (km) Brightness Sun altitude
Rises 03:32:49 0° 152° (SSE) 4,338 12.5 -31.3°
Reaches altitude 10° 03:35:39 10° 146° (SE) 3,360 11.9 -30.6°
Maximum altitude 03:43:01 49° 73° (ENE) 1,663 9.9 -28.9°
Drops below altitude 10° 03:50:22 10° 1° (N) 3,364 11.1 -27.1°
Sets 03:53:10 0° 356° (N) 4,344 11.7 -26.4°
